Location: Alafon
(8.4500°N, 4.2333°E)
Time: 17:17:49
(UTC+00:00)

SR - Pass Details

Date: 07 August 2021
Orbit: 581 x 874 km, 66.7° (Epoch: 18 September)

Event Time Altitude Azimuth Distance (km) Brightness Sun altitude
Rises 03:41:14 0° 220° (SW) 3,441 - -27.4°
Reaches altitude 10° 03:43:57 10° 229° (SW) 2,514 - -26.8°
Maximum altitude 03:49:07 32° 291° (WNW) 1,436 - -25.6°
Exits shadow 03:50:33 29° 318° (NW) 1,541 ? -25.3°
Drops below altitude 10° 03:54:15 10° 354° (N) 2,480 ? -24.4°
Sets 03:56:56 0° 4° (N) 3,387 ? -23.8°
